OpenBCM V1.08-5-g2f4a (Linux)

Packet Radio Mailbox

IZ3LSV

[San Dona' di P. JN]

 Login: GUEST





  
CX2SA  > KEPS     07.12.12 03:45l 318 Lines 8329 Bytes #999 (0) @ WW
BID : ORB12341.D
Read: GUEST
Subj: Orbital Elements  12341.MICROS
Path: IZ3LSV<IQ5KG<IK1NHL<CX2SA
Sent: 121207/0244Z @:CX2SA.SAL.URY.SA #:243 [Salto] FBB7.00e $:ORB12341.D
From: CX2SA@CX2SA.SAL.URY.SA
To  : KEPS@AMSAT


HR AMSAT ORBITAL ELEMENTS FOR THE MICROSATS
FROM WA5QGD FORT WORTH,TX December 6, 2012
BID: ORB12341.D
TO ALL RADIO AMATEURS BT

Satellite: UO-11
Catalog number: 14781
Epoch time:      12341.59283173
Element set:      44
Inclination:      097.9314 deg
RA of node:       039.4078 deg
Eccentricity:    0.0009157
Arg of perigee:   185.3468 deg
Mean anomaly:     174.7648 deg
Mean motion:   14.80682190 rev/day
Decay rate:       6.41e-06 rev/day^2
Epoch rev:           54543
Checksum:              319

Satellite: AO-16
Catalog number: 20439
Epoch time:      12340.96369247
Element set:     622
Inclination:      098.4488 deg
RA of node:       279.6856 deg
Eccentricity:    0.0011399
Arg of perigee:   015.2656 deg
Mean anomaly:     344.8869 deg
Mean motion:   14.32118240 rev/day
Decay rate:        9.2e-07 rev/day^2
Epoch rev:           19458
Checksum:              340

Satellite: LO-19
Catalog number: 20442
Epoch time:      12340.96082949
Element set:     554
Inclination:      098.4177 deg
RA of node:       282.1029 deg
Eccentricity:    0.0012107
Arg of perigee:   006.3618 deg
Mean anomaly:     353.7712 deg
Mean motion:   14.32332899 rev/day
Decay rate:        9.1e-07 rev/day^2
Epoch rev:           19477
Checksum:              309

Satellite: AO-27
Catalog number: 22825
Epoch time:      12341.57386181
Element set:     260
Inclination:      098.5953 deg
RA of node:       281.8662 deg
Eccentricity:    0.0009070
Arg of perigee:   130.1001 deg
Mean anomaly:     230.0974 deg
Mean motion:   14.29515771 rev/day
Decay rate:        5.4e-07 rev/day^2
Epoch rev:             111
Checksum:              270

Satellite: IO-26
Catalog number: 22826
Epoch time:      12340.98164395
Element set:      15
Inclination:      098.5884 deg
RA of node:       281.6097 deg
Eccentricity:    0.0009571
Arg of perigee:   125.3171 deg
Mean anomaly:     234.8906 deg
Mean motion:   14.29794686 rev/day
Decay rate:        8.9e-07 rev/day^2
Epoch rev:             115
Checksum:              329

Satellite: GO-32
Catalog number: 25397
Epoch time:      12340.78831481
Element set:     941
Inclination:      098.3870 deg
RA of node:       311.2517 deg
Eccentricity:    0.0001972
Arg of perigee:   117.8144 deg
Mean anomaly:     242.3234 deg
Mean motion:   14.23310497 rev/day
Decay rate:       -2.0e-08 rev/day^2
Epoch rev:           74843
Checksum:              290

Satellite: NO-44
Catalog number: 26931
Epoch time:      12340.48648769
Element set:     204
Inclination:      067.0521 deg
RA of node:       038.8255 deg
Eccentricity:    0.0004948
Arg of perigee:   257.4991 deg
Mean anomaly:     102.5548 deg
Mean motion:   14.29865457 rev/day
Decay rate:      -1.26e-06 rev/day^2
Epoch rev:           58373
Checksum:              333

Satellite: SO-50
Catalog number: 27607
Epoch time:      12340.51846242
Element set:     933
Inclination:      064.5562 deg
RA of node:       133.6197 deg
Eccentricity:    0.0069728
Arg of perigee:   213.3465 deg
Mean anomaly:     146.3213 deg
Mean motion:   14.72666020 rev/day
Decay rate:       4.19e-06 rev/day^2
Epoch rev:           53519
Checksum:              299

Satellite: CO-55
Catalog number: 27844
Epoch time:      12341.00157448
Element set:     525
Inclination:      098.7011 deg
RA of node:       346.8880 deg
Eccentricity:    0.0010493
Arg of perigee:   085.8094 deg
Mean anomaly:     274.4284 deg
Mean motion:   14.21125861 rev/day
Decay rate:       1.81e-06 rev/day^2
Epoch rev:           48929
Checksum:              315

Satellite: CO-57
Catalog number: 27848
Epoch time:      12341.03596535
Element set:     474
Inclination:      098.7104 deg
RA of node:       346.3363 deg
Eccentricity:    0.0010405
Arg of perigee:   090.9658 deg
Mean anomaly:     269.2708 deg
Mean motion:   14.20864095 rev/day
Decay rate:       1.56e-06 rev/day^2
Epoch rev:           48923
Checksum:              328

Satellite: AO-51
Catalog number: 28375
Epoch time:      12340.45106505
Element set:     432
Inclination:      098.1720 deg
RA of node:       297.9889 deg
Eccentricity:    0.0082443
Arg of perigee:   242.5893 deg
Mean anomaly:     116.6858 deg
Mean motion:   14.41045688 rev/day
Decay rate:       3.72e-06 rev/day^2
Epoch rev:           44343
Checksum:              325

Satellite: CP3
Catalog number: 31129
Epoch time:      12340.52932485
Element set:     332
Inclination:      097.8840 deg
RA of node:       338.2720 deg
Eccentricity:    0.0100037
Arg of perigee:   310.6852 deg
Mean anomaly:     048.5671 deg
Mean motion:   14.53371352 rev/day
Decay rate:       5.25e-06 rev/day^2
Epoch rev:           29886
Checksum:              291

Satellite: CO-65
Catalog number: 32785
Epoch time:      12341.20876659
Element set:     489
Inclination:      097.7788 deg
RA of node:       038.0224 deg
Eccentricity:    0.0013700
Arg of perigee:   216.3361 deg
Mean anomaly:     143.6903 deg
Mean motion:   14.83442566 rev/day
Decay rate:      1.193e-05 rev/day^2
Epoch rev:           24926
Checksum:              324

Satellite: PRISM
Catalog number: 33493
Epoch time:      12341.56238459
Element set:     324
Inclination:      098.1923 deg
RA of node:       126.6052 deg
Eccentricity:    0.0019432
Arg of perigee:   098.3213 deg
Mean anomaly:     262.0198 deg
Mean motion:   14.84932346 rev/day
Decay rate:      1.878e-05 rev/day^2
Epoch rev:           20932
Checksum:              303

Satellite: SOHLA-1
Catalog number: 33496
Epoch time:      12340.90304139
Element set:     907
Inclination:      098.1192 deg
RA of node:       091.6676 deg
Eccentricity:    0.0005831
Arg of perigee:   209.9894 deg
Mean anomaly:     150.0978 deg
Mean motion:   14.70135136 rev/day
Decay rate:       3.04e-06 rev/day^2
Epoch rev:           20747
Checksum:              302

Satellite: SO-67
Catalog number: 35870
Epoch time:      12341.68165750
Element set:     581
Inclination:      097.2132 deg
RA of node:       011.3335 deg
Eccentricity:    0.0000822
Arg of perigee:   333.4747 deg
Mean anomaly:     167.3003 deg
Mean motion:   15.25384234 rev/day
Decay rate:      3.071e-05 rev/day^2
Epoch rev:           17889
Checksum:              292

Satellite: TISAT-1
Catalog number: 36799
Epoch time:      12341.54784909
Element set:     597
Inclination:      098.0504 deg
RA of node:       059.0843 deg
Eccentricity:    0.0014256
Arg of perigee:   338.4249 deg
Mean anomaly:     021.6365 deg
Mean motion:   14.82630347 rev/day
Decay rate:      1.223e-05 rev/day^2
Epoch rev:           13002
Checksum:              303

Satellite: STUDSAT
Catalog number: 36801
Epoch time:      12341.88566420
Element set:     543
Inclination:      098.0577 deg
RA of node:       061.0611 deg
Eccentricity:    0.0012153
Arg of perigee:   319.0995 deg
Mean anomaly:     040.9304 deg
Mean motion:   14.86239599 rev/day
Decay rate:      3.798e-05 rev/day^2
Epoch rev:           13015
Checksum:              300

Satellite: FO-69
Catalog number: 37227
Epoch time:      12324.39082420
Element set:    0341
Inclination:      071.9700 deg
RA of node:       329.4329 deg
Eccentricity:    0.0015671
Arg of perigee:   026.5333 deg
Mean anomaly:     333.6607 deg
Mean motion:   14.77273675 rev/day
Decay rate:       9.49e-06 rev/day^2
Epoch rev:           05901
Checksum:              306

Satellite: FO-70
Catalog number: 37380
Epoch time:      12324.35497821
Element set:    0345
Inclination:      071.9737 deg
RA of node:       330.2673 deg
Eccentricity:    0.0016487
Arg of perigee:   023.0914 deg
Mean anomaly:     337.0959 deg
Mean motion:   14.77019282 rev/day
Decay rate:       9.12e-06 rev/day^2
Epoch rev:           05889
Checksum:              323

Satellite: ALMASAT-1
Catalog number: 38078
Epoch time:      12341.35973677
Element set:     800
Inclination:      069.4776 deg
RA of node:       285.4025 deg
Eccentricity:    0.0729155
Arg of perigee:   031.9286 deg
Mean anomaly:     332.3912 deg
Mean motion:   14.16174542 rev/day
Decay rate:     2.2969e-04 rev/day^2
Epoch rev:            4186
Checksum:              329

Satellite: XATCOBEO
Catalog number: 38082
Epoch time:      12341.25508006
Element set:     751
Inclination:      069.4825 deg
RA of node:       276.8992 deg
Eccentricity:    0.0665187
Arg of perigee:   027.2523 deg
Mean anomaly:     336.1831 deg
Mean motion:   14.33160757 rev/day
Decay rate:     6.1412e-04 rev/day^2
Epoch rev:            4208
Checksum:              299



Read previous mail | Read next mail


 22.12.2024 10:13:50lGo back Go up